STARLINK-31742, 59499

Orbit data source: Space-Track

STARLINK-31742, 59499 is a payload satellite owned by SpaceX/Seattle (US) in LEO that was launched on Sat, 13 Apr 2024 UTC via an FALCON 9 launch vehicle from the Air Force Eastern Test Range (AFETR). Payload-class satellites include a variety of spacecraft equipped with specific instruments for various scientific and technological missions. These include communications satellites like Starlink; space stations such as the ISS; scientific satellites like the Hubble; Earth observation satellites from companies like Planet Labs, Umbra, and HawkEye 360; GPS; miniature CubeSats for education and research; and military/defense satellites.

Loading next visibility...
Identifier
59499, 2024-071R
Orbit
LEO
Country
Flag of USUS
Related business
Manufacturer
SpaceX/Seattle
Mission
Operational Commercial Communications
Bus & Motor
STARLINK V2M, Unknown motor
Mass
730 kg wet, ~700 kg dry
Launch date (UTC)
2024-04-13 (2 years ago)
Launch vehicle
FALCON 9
Launch site
Air Force Eastern Test Range (AFETR)
Object type
Payload
Rocket body
Debris
Shape & HBR
Box + 2 Pan, 17.7 m
Radar Cross Section
33.884 m², Large (>1 m²)

Expand to show TLE details & history
Last TLE update: 3 days ago

TLE from 3 days ago
0 STARLINK-31742
1 59499U 24071R   26170.99056090  .00000232  00000-0  17956-4 0  9993
2 59499  43.0021 121.7909 0001006 301.8558  58.2196 15.27580524123853
Epoch: 2026-06-19T23:46Z
TLE epoch observation values (Epoch: 2026-06-19T23:46:24.461Z)
Latitude
-0.00001°
Longitude
-143.02264°
Altitude
482.46 km
Speed
7.626 km/s
True Right ascension
08h 07m 09s
True Declination
0° 00' 00"
Sunlit
Object was in daylight at epoch
Visualization orbit readout
Latitude
Unknown
Longitude
Unknown
Altitude
Unknown
Speed
Unknown
Apparent Right ascension
Unknown
Apparent Declination
Unknown
Sunlit
N/A
Visualization observer readout
Local Sidereal Time
00:25:37
Azimuth
Unknown
Elevation
Unknown
Doppler factor
Unknown
Orbital elements
Apogee altitude
485.683 km
Perigee altitude
484.302 km
Semi-major axis
6,863.129 km
Eccentricity
0.0001
Inclination
43.0021°
RAAN
121.7909°
Arg. of periapsis
301.8558°
True anomaly
58.2294°
Mean anomaly
58.2196°
Eccentric anomaly
58.2245°
Mean motion
3.81733 °/min
Orbital period
94.31 mins
BSTAR
0.000017956
Loading maneuver chart data...
Computing Atmospheric mass density...
Loading historical data...
Loading historical data...
Loading historical data...
Loading historical data...
Loading historical data...
Loading historical data...
Loading historical data...

Documentation

Showing up to 5 results
|